TimeMDT,TemperatureF,Dew PointF,Humidity,Sea Level PressureIn,VisibilityMPH,Wind Direction,Wind SpeedMPH,Gust SpeedMPH,PrecipitationIn,Events,Conditions,WindDirDegrees,DateUTC
12:53 AM,44.1,37.9,79,29.91,10.0,SW,6.9,-,N/A,,Clear,230,2013-05-22 06:53:00
1:53 AM,39.9,36.0,86,29.90,10.0,West,9.2,-,N/A,,Clear,260,2013-05-22 07:53:00
2:53 AM,41.0,37.0,86,29.88,10.0,West,8.1,-,N/A,,Clear,270,2013-05-22 08:53:00
3:53 AM,39.9,36.0,86,29.88,10.0,West,8.1,-,N/A,,Clear,260,2013-05-22 09:53:00
4:53 AM,39.9,35.1,83,29.87,10.0,West,6.9,-,N/A,,Clear,260,2013-05-22 10:53:00
5:53 AM,42.1,36.0,79,29.89,10.0,WSW,4.6,-,N/A,,Clear,250,2013-05-22 11:53:00
6:53 AM,48.0,41.0,77,29.88,10.0,West,3.5,-,N/A,,Clear,260,2013-05-22 12:53:00
7:53 AM,54.0,39.0,57,29.90,10.0,North,3.5,-,N/A,,Clear,350,2013-05-22 13:53:00
8:53 AM,55.0,39.9,57,29.93,10.0,North,5.8,-,N/A,,Clear,10,2013-05-22 14:53:00
9:53 AM,55.9,39.9,55,29.93,10.0,NE,6.9,-,N/A,,Clear,40,2013-05-22 15:53:00
10:53 AM,59.0,41.0,51,29.91,10.0,Calm,Calm,-,N/A,,Clear,0,2013-05-22 16:53:00
11:53 AM,63.0,42.1,46,29.89,10.0,SE,5.8,-,N/A,,Clear,140,2013-05-22 17:53:00
12:53 PM,66.0,43.0,43,29.87,10.0,East,9.2,-,N/A,,Clear,80,2013-05-22 18:53:00
1:53 PM,66.9,42.1,40,29.87,10.0,East,15.0,21.9,N/A,,Clear,100,2013-05-22 19:53:00
2:53 PM,69.1,43.0,39,29.85,10.0,ENE,13.8,20.7,N/A,,Clear,70,2013-05-22 20:53:00
3:53 PM,70.0,42.1,36,29.84,10.0,East,13.8,21.9,N/A,,Clear,100,2013-05-22 21:53:00
4:53 PM,70.0,42.1,36,29.84,10.0,East,16.1,25.3,N/A,,Clear,80,2013-05-22 22:53:00
5:53 PM,68.0,42.1,39,29.85,10.0,East,20.7,24.2,N/A,,Clear,80,2013-05-22 23:53:00
6:53 PM,66.0,43.0,43,29.86,10.0,ENE,18.4,25.3,N/A,,Clear,70,2013-05-23 00:53:00
7:53 PM,60.1,44.1,55,29.89,10.0,ENE,15.0,24.2,N/A,,Clear,70,2013-05-23 01:53:00
8:53 PM,55.9,44.1,64,29.92,10.0,East,16.1,-,N/A,,Partly Cloudy,80,2013-05-23 02:53:00
9:53 PM,53.1,44.1,71,29.96,10.0,ENE,21.9,27.6,N/A,,Clear,70,2013-05-23 03:53:00
10:53 PM,48.9,44.1,83,30.00,10.0,East,17.3,-,N/A,,Clear,80,2013-05-23 04:53:00
11:53 PM,48.0,44.1,86,30.05,10.0,ENE,6.9,-,N/A,,Scattered Clouds,60,2013-05-23 05:53:00